MARSHFIELD, MA current weather conditions

sailwx.info

Wind from 270 at 7 knots

Air temperature 6.0° C
Visibility: greater than 8.7 NM
Dewpoint -4.0° C

Last reported at 2015-Apr-25 03:35 UTC.
Time now 2015-Apr-25 04:14 UTC

Location: N 42°06' W 070°40'.
View on Google Maps.

See reports from other nearby stations

  
Tides and Currents Weather Stations Pressure Air Temp Water Temp Dewpoint Dewpoint Depression Visibility Wind Speed Wind Dir Waves Ship Positions
date/time (UTC)wind fromknots sea level pressurealtimeterstation pressurevisibilityair tempwater tempwave heightnotes
2015-Apr-25 03:35 270 7 8.7 6.0
2015-Apr-25 03:15 290 6 8.7 6.0
2015-Apr-25 02:55 310 9 gusting 15 8.7 7.0
2015-Apr-25 02:35 320 8 gusting 16 8.7 7.0
2015-Apr-25 02:15 310 9 gusting 17 8.7 7.0
2015-Apr-25 01:55 310 9 gusting 17 8.7 7.0
2015-Apr-25 01:35 310 8 gusting 15 8.7 7.0
2015-Apr-25 01:15 310 5 8.7 7.0
2015-Apr-25 00:55 300 7 8.7 7.0
2015-Apr-25 00:35 320 7 gusting 14 8.7 7.0
2015-Apr-25 00:15 310 7 gusting 15 8.7 7.0
2015-Apr-24 23:55 310 9 gusting 17 8.7 8.0
2015-Apr-24 23:35 310 7 gusting 16 8.7 8.0
2015-Apr-24 23:15 310 6 8.7 8.0
2015-Apr-24 22:55 310 6 gusting 15 8.7 8.0
2015-Apr-24 22:35 300 9 8.7 8.0
2015-Apr-24 22:15 290 8 gusting 14 8.7 9.0
2015-Apr-24 21:55 300 7 gusting 15 8.7 9.0
2015-Apr-24 21:35 280 8 8.7 9.0
2015-Apr-24 21:15 280 9 gusting 14 8.7 9.0
2015-Apr-24 20:55 300 9 gusting 17 8.7 9.0
2015-Apr-24 20:35 320 12 gusting 17 8.710.0
2015-Apr-24 20:15 310 7 8.710.0
2015-Apr-24 19:55 300 7 gusting 16 8.7 9.0
2015-Apr-24 19:35 330 7 gusting 18 8.7 9.0
2015-Apr-24 19:15 290 7 gusting 17 8.710.0
2015-Apr-24 18:55 320 11 gusting 16 8.711.0
2015-Apr-24 18:35 320 7 gusting 17 8.7 9.0
2015-Apr-24 18:15 280 8 gusting 20 8.7 9.0
2015-Apr-24 17:55 310 9 gusting 17 8.711.0
2015-Apr-24 17:35 290 5 gusting 15 8.710.0
2015-Apr-24 17:15 300 9 8.7 9.0
2015-Apr-24 16:55 310 9 gusting 15 8.710.0
2015-Apr-24 16:35 280 7 gusting 15 8.7 9.0
2015-Apr-24 16:15 280 6 gusting 16 8.7 9.0
2015-Apr-24 15:55 310 9 gusting 15 1.7 8.0 Haze.
2015-Apr-24 15:35 300 8 gusting 20 8.7 9.0
2015-Apr-24 15:15 300 13 gusting 19 8.7 9.0
2015-Apr-24 14:55 330 10 gusting 16 8.7 8.0
2015-Apr-24 14:35 330 11 gusting 16 8.7 8.0
2015-Apr-24 14:15 280 12 gusting 18 8.7 8.0
2015-Apr-24 13:55 300 9 gusting 16 8.7 8.0
2015-Apr-24 13:35 280 10 gusting 20 8.7 7.0
2015-Apr-24 13:15 290 10 gusting 19 8.7 7.0
2015-Apr-24 12:55 300 13 gusting 22 8.7 7.0
2015-Apr-24 12:35 300 10 gusting 18 8.7 6.0
2015-Apr-24 12:15 300 10 gusting 18 8.7 6.0
2015-Apr-24 11:55 310 9 gusting 16 8.7 6.0
2015-Apr-24 11:35 300 11 gusting 19 8.7 5.0
2015-Apr-24 11:15 270 8 8.7 4.0
2015-Apr-24 10:55 280 8 gusting 15 8.7 3.0
2015-Apr-24 10:35 280 6 gusting 14 8.7 3.0
2015-Apr-24 10:15 270 6 8.7 3.0
2015-Apr-24 09:55 270 6 8.7 3.0
2015-Apr-24 09:35 260 8 8.7 2.0
2015-Apr-24 09:15 280 7 8.7 2.0
2015-Apr-24 08:55 270 6 8.7 2.0
2015-Apr-24 08:35 270 6 8.7 2.0
2015-Apr-24 08:15 260 6 8.7 2.0
2015-Apr-24 07:55 260 7 8.7 2.0
2015-Apr-24 07:35 260 5 8.7 2.0
2015-Apr-24 07:15 260 7 8.7 3.0
2015-Apr-24 06:55 270 7 8.7 3.0
2015-Apr-24 06:35 270 6 8.7 3.0
2015-Apr-24 06:15 270 9 gusting 18 8.7 4.0
2015-Apr-24 05:55 290 9 gusting 15 8.7 4.0
2015-Apr-24 05:35 280 6 8.7 4.0
2015-Apr-24 05:15 280 7 8.7 4.0
2015-Apr-24 04:55 270 8 gusting 15 8.7 4.0
2015-Apr-24 04:35 280 6 8.7 4.0
2015-Apr-24 04:15 280 9 gusting 17 8.7 4.0
2015-Apr-24 03:55 280 6 8.7 4.0
2015-Apr-24 03:35 280 8 8.7 4.0
2015-Apr-24 03:15 270 5 8.7 4.0
2015-Apr-24 02:55 290 8 8.7 4.0
2015-Apr-24 02:35 280 4 8.7 5.0
2015-Apr-24 02:15 280 7 8.7 6.0
2015-Apr-24 01:55 290 6 8.7 6.0
2015-Apr-24 01:35 270 5 8.7 6.0
2015-Apr-24 01:15 270 6 8.7 6.0
2015-Apr-24 00:55 260 5 8.7 7.0
2015-Apr-24 00:35 290 8 gusting 17 8.7 7.0
2015-Apr-24 00:15 280 6 gusting 15 8.7 7.0
2015-Apr-23 23:55 270 6 8.7 7.0
2015-Apr-23 23:35 270 4 8.7 8.0
2015-Apr-23 23:15 280 6 8.7 8.0
2015-Apr-23 22:55 270 6 8.7 8.0
2015-Apr-23 22:35 260 6 8.7 8.0
2015-Apr-23 22:15 270 4 8.7 8.0
2015-Apr-23 21:55 270 8 gusting 15 8.7 9.0
2015-Apr-23 21:35 290 6 gusting 17 8.7 9.0
2015-Apr-23 21:15 280 6 gusting 15 8.7 9.0
2015-Apr-23 20:55 280 9 gusting 16 8.7 9.0
2015-Apr-23 20:35 300 6 gusting 18 8.7 9.0
2015-Apr-23 20:15 310 7 gusting 19 8.7 9.0
2015-Apr-23 19:55 270 9 gusting 19 8.7 9.0
2015-Apr-23 19:35 270 10 gusting 17 8.710.0
2015-Apr-23 19:15 280 13 gusting 19 8.711.0
2015-Apr-23 18:55 290 10 gusting 20 8.710.0
2015-Apr-23 18:35 260 9 gusting 18 8.7 9.0
2015-Apr-23 18:15 270 6 gusting 14 8.7 8.0
2015-Apr-23 17:55 280 11 gusting 20 8.7 9.0
2015-Apr-23 17:35 260 9 gusting 19 8.7 9.0
2015-Apr-23 17:15 260 10 gusting 18 8.7 9.0
2015-Apr-23 16:55 280 7 gusting 16 8.7 9.0
2015-Apr-23 16:35 290 11 gusting 16 8.711.0
2015-Apr-23 16:15 260 6 gusting 15 8.7 9.0
2015-Apr-23 15:55 270 7 8.7 9.0
2015-Apr-23 15:35 240 6 8.7 9.0
2015-Apr-23 15:15 290 7 8.7 8.0
2015-Apr-23 14:55 260 4 8.7 9.0
2015-Apr-23 14:35 270 9 gusting 18 8.7 8.0
2015-Apr-23 14:15 240 7 8.7 9.0
2015-Apr-23 13:55 270 6 8.7 9.0
2015-Apr-23 13:35 260 8 gusting 16 8.7 9.0
2015-Apr-23 13:15 260 9 gusting 14 8.7 8.0
2015-Apr-23 12:55 280 8 gusting 14 8.7 8.0
2015-Apr-23 12:35 270 10 gusting 17 8.7 8.0
2015-Apr-23 12:15 270 9 gusting 19 8.7 8.0
2015-Apr-23 11:55 260 8 gusting 15 8.7 7.0
2015-Apr-23 11:35 250 8 gusting 16 8.7 7.0
2015-Apr-23 11:15 250 8 gusting 14 8.7 6.0
2015-Apr-23 10:55 250 7 8.7 6.0
2015-Apr-23 10:35 250 5 8.7 6.0
2015-Apr-23 10:15 230 6 8.7 5.0
2015-Apr-23 09:55 230 4 8.7 4.0
2015-Apr-23 09:35 240 4 8.7 4.0
2015-Apr-23 09:15 240 4 8.7 5.0
2015-Apr-23 08:55 270 3 8.7 6.0
2015-Apr-23 08:35 270 5 8.7 6.0
2015-Apr-23 08:15 260 8 8.7 6.0
2015-Apr-23 07:55 270 9 8.7 7.0
2015-Apr-23 07:35 280 6 8.7 7.0
2015-Apr-23 07:15 280 9 gusting 15 8.7 7.0
2015-Apr-23 06:55 290 6 8.7 8.0
2015-Apr-23 06:35 280 6 gusting 17 8.7 8.0
2015-Apr-23 06:15 250 8 gusting 16 8.7 8.0
2015-Apr-23 05:55 260 12 gusting 20 8.7 9.0
2015-Apr-23 05:35 270 11 gusting 23 8.7 9.0
2015-Apr-23 05:15 240 8 gusting 19 8.710.0
2015-Apr-23 04:55 220 10 gusting 18 8.710.0
2015-Apr-23 04:35 220 11 gusting 20 8.710.0
2015-Apr-23 04:15 220 13 gusting 19 8.711.0